Location: Helsinki
(60.1699°N, 24.9384°E)
Time: 11:18:50
(UTC+02:00)

Transit 2A Rocket - Pass Details

Date: 28 September 2023
Orbit: 593 x 903 km, 66.7° (Epoch: 06 December)

Event Time Altitude Azimuth Distance (km) Brightness Sun altitude
Rises 15:02:18 0° 191° (SSW) 3,298 9.5 24.1°
Reaches altitude 10° 15:05:02 10° 182° (S) 2,319 8.7 24.0°
Maximum altitude 15:09:37 31° 122° (ESE) 1,278 6.4 23.7°
Drops below altitude 10° 15:13:52 10° 61° (ENE) 2,151 6.9 23.4°
Sets 15:16:18 0° 51° (NE) 3,021 7.5 23.2°
